Regional Weather Roundup
Issued by NWS

Home | Current Version | Previous Version | Graphics & Text | Print | Product List | Glossary On
Versions: 1 2 3 4 5 6 7 8 9 10 11 12 13 14 15 16 17 18 19 20 21 22 23 24 25 26 27 28 29 30 31 32 33 34 35 36 37 38 39 40 41 42 43 44 45 46 47 48 49 50
000
ASUS43 KLOT 301912
RWRIL

ILLINOIS REGIONAL WEATHER ROUNDUP
NATIONAL WEATHER SERVICE CHICAGO/ROMEOVILLE IL
200 PM CDT TUE JUN 30 2015

NOTE: "FAIR" INDICATES FEW OR NO CLOUDS BELOW 12,000 FEET WITH NO
SIGNIFICANT WEATHER AND/OR OBSTRUCTIONS TO VISIBILITY.

* THESE STATIONS ARE NOT UNDER NWS QUALITY CONTROL. THEY ALSO MAY NOT
  REPORT WEATHER SUCH AS PRECIPITATION OR FOG.

ILZ001-002-007-009-015-016-024-302000-
NORTHWEST ILLINOIS

CITY           SKY/WX    TMP DP  RH WIND       PRES   REMARKS
MOLINE         MOSUNNY   81  62  52 N7        29.84F HX  82
STERLING*      PTSUNNY   79  64  61 N9        29.84F HX  81
SAVANNA*       MOSUNNY   77  61  56 N7        29.85F
$$

ILZ003-004-008-010-011-017-018-302000-
NORTH CENTRAL ILLINOIS

CITY           SKY/WX    TMP DP  RH WIND       PRES   REMARKS
ROCKFORD       PTSUNNY   74  60  61 N13       29.86S
FREEPORT*      MOSUNNY   73  62  70 N8        29.87F
ROCHELLE*      MOSUNNY   74  63  67 NW10G17   29.86R
DE KALB*       PTSUNNY   71  61  71 N10       29.85S
PERU*          MOSUNNY   77  60  55 NW12      29.85S
$$

ILZ005-006-012>014-019>023-302000-
NORTHEAST ILLINOIS

CITY           SKY/WX    TMP DP  RH WIND       PRES   REMARKS
CHICAGO-OHARE  PTSUNNY   76  60  57 N13       29.81S
CHICAGO-MIDWAY PTSUNNY   79  60  52 NW12      29.80F HX  80
AURORA         MOSUNNY   75  62  64 N15G22    29.83S
LANSING*       PTSUNNY   76  58  52 NW6       29.81S
JOLIET*        PTSUNNY   77  64  64 NW7       29.82S
WAUKEGAN         N/A    N/A N/A N/A MISG      29.81F
DUPAGE AIRPORT PTSUNNY   74  60  61 NW14      29.82S
KANKAKEE*      MOSUNNY   77  65  64 NW7       29.82S
WHEELING       PTSUNNY   75  59  57 NW12      29.83S
MORRIS*        MOSUNNY   76  63  62 NW9       29.81S
ROMEOVILLE*    MOSUNNY   76  60  58 N13       29.82S
NORTHERLY ISL    N/A     69  60  73 NE10        N/A
$$

LMZ740>746-302000-
SOUTHERN LAKE MICHIGAN

STATION/POSITION SKY/WX   TEMP    WIND        PRES    VSBY  WAVE
                          AIR SEA DIR/SP/G                  HT/PER
                          (F)     (DEG/KT/KT) (MB)    (MI)  (FT/S)
HARRISON CRIB              66      30/  9/ 11   N/A
BURNHAM HARBOR             68      50/  6/  9   N/A
CALUMET HARBOR             71      20/  9/ 12   N/A
BURNS HARBOR               67      40/ 11/ 12 1010.2F
MICHIGAN CITY              64     350/ 12/ 14   N/A
MICHIGAN CITY 6N           63 65   40/ 10/ 12   N/A           1/ 2
ST. JOSEPH                 63 66                N/A           1/ 3
$$

ILZ025>027-034>036-040-047-049-050-058-095>099-302000-
WEST-CENTRAL ILLINOIS

CITY           SKY/WX    TMP DP  RH WIND       PRES   REMARKS
QUINCY         SUNNY     80  66  62 NW13      29.87S HX  82
GALESBURG*     PTSUNNY   79  65  60 N3        29.86S HX  81
MACOMB*        PTSUNNY   79  68  69 NW8       29.87F HX  81
JACKSONVILLE*  SUNNY     83  70  64 W9        29.85S HX  86
PITTSFIELD*    SUNNY     82  67  59 W10       29.87F HX  85
$$

ILZ028>032-037-038-041>044-048-051>054-059>061-302000-
CENTRAL ILLINOIS

CITY           SKY/WX    TMP DP  RH WIND       PRES   REMARKS
PONTIAC        MOSUNNY   79  66  65 W12       29.84S HX  81
BLOOMINGTON    MOSUNNY   80  63  56 NW7       29.86S HX  81
DECATUR        SUNNY     83  68  60 W7        29.84F HX  86
PEORIA         PTSUNNY   83  64  52 NW7       29.84F HX  84
LACON*         MOSUNNY   78  63  58 NW6       29.84R HX  80
LINCOLN*       PTSUNNY   81  68  64 NW6       29.84S HX  84
SPRINGFIELD    SUNNY     84  68  58 W10       29.84S HX  87
TAYLORVILLE    MOSUNNY   79  68  69 W12       29.85S HX  81
$$

ILZ033-039-045-046-055>057-062-063-302000-
EAST-CENTRAL ILLINOIS

CITY           SKY/WX    TMP DP  RH WIND       PRES   REMARKS
CHAMPAIGN      PTSUNNY   79  66  64 W5        29.84F HX  81
DANVILLE*      SUNNY     79  65  63 W9G17     29.80F HAZE    HX  81
RANTOUL*       MOSUNNY   81  65  59 NW7       29.83F HX  83
MATTOON        MOSUNNY   81  68  64 W8        29.84F HX  84
PARIS*         MOSUNNY   81  68  63 W10       29.84F HX  84
$$

ILZ079-100>102-302000-
SOUTHWEST ILLINOIS

CITY           SKY/WX    TMP DP  RH WIND       PRES   REMARKS
ALTON          CLOUDY    81  72  74 W8        29.88F HX  84
BELLEVILLE     PTSUNNY   83  68  60 W9        29.87F HX  86
CAHOKIA*       SUNNY     84  63  49 W8        29.88F HX  85
SPARTA*        SUNNY     82  66  57 W7        29.90F HX  84
$$

ILZ064>066-069>071-074>076-080>082-084>086-088>090-092>094-302000-
SOUTH-CENTRAL ILLINOIS

CITY           SKY/WX    TMP DP  RH WIND       PRES   REMARKS
CARBONDALE     SUNNY     83  65  54 W9        29.89F HX  85
CAIRO*         SUNNY     84  68  58 SW3       29.90F HX  87
EFFINGHAM*     MOSUNNY   82  64  53 W15       29.87F HX  84
MT. VERNON     MOSUNNY   82  66  57 W7        29.88F HX  85
CENTRALIA*     SUNNY     82  65  58 W10       29.89S HX  83
SALEM*         SUNNY     83  66  56 W9        29.88S HX  86
METROPOLIS*    SUNNY     84  68  58 W7        29.90F HX  88
$$

ILZ067-068-072-073-078-083-087-091-302000-
SOUTHEAST ILLINOIS

CITY           SKY/WX    TMP DP  RH WIND       PRES   REMARKS
LAWRENCEVILLE  MOSUNNY   83  68  60 W14       29.84F HX  86
FLORA*         SUNNY     81  66  60 W9G16     29.87S HX  83
FAIRFIELD*     SUNNY     82  68  62 SW8       29.86F HX  84
HARRISBURG*    SUNNY     82  68  62 W6        29.89F HX  85
ROBINSON*      MOSUNNY   82  67  59 W10       29.84F HX  85
CARMI*         MOSUNNY   83  62  48 W10       29.87F HX  83
$$

ABBREVIATIONS USED IN REMARKS
   TC - TEMPERATURE IN CELSIUS
  WCI - WIND CHILL INDEX
   HX - HEAT INDEX
  VSB - VISIBILITY
$$



USA.gov is the U.S. government's official web portal to all federal, state and local government web resources and services.